TimeCDT,TemperatureF,Dew PointF,Humidity,Sea Level PressureIn,VisibilityMPH,Wind Direction,Wind SpeedMPH,Gust SpeedMPH,PrecipitationIn,Events,Conditions,WindDirDegrees,DateUTC
12:24 AM,75.2,71.6,89,29.86,9.0,SSE,15.0,21.9,N/A,,Overcast,160,2013-04-18 05:24:00
12:53 AM,75.0,71.1,87,29.88,8.0,SSE,16.1,23.0,N/A,,Overcast,160,2013-04-18 05:53:00
1:13 AM,75.2,71.6,89,29.85,10.0,SSE,19.6,27.6,N/A,,Overcast,160,2013-04-18 06:13:00
1:33 AM,75.2,71.6,89,29.85,8.0,SSE,19.6,25.3,N/A,,Overcast,160,2013-04-18 06:33:00
1:53 AM,75.0,71.1,87,29.88,10.0,SSE,15.0,23.0,N/A,,Overcast,160,2013-04-18 06:53:00
2:04 AM,75.2,69.8,83,29.85,10.0,SSE,15.0,26.5,N/A,,Overcast,160,2013-04-18 07:04:00
2:53 AM,75.0,70.0,84,29.85,10.0,SSE,17.3,25.3,N/A,,Overcast,150,2013-04-18 07:53:00
3:53 AM,75.0,69.1,82,29.82,10.0,SSE,18.4,24.2,N/A,,Overcast,160,2013-04-18 08:53:00
4:53 AM,75.0,69.1,82,29.80,10.0,SSE,16.1,27.6,N/A,,Overcast,160,2013-04-18 09:53:00
5:01 AM,75.2,69.8,83,29.78,10.0,SSE,16.1,25.3,N/A,,Overcast,160,2013-04-18 10:01:00
5:08 AM,75.2,69.8,83,29.78,10.0,SSE,16.1,26.5,N/A,,Overcast,160,2013-04-18 10:08:00
5:53 AM,75.0,68.0,79,29.80,10.0,South,11.5,23.0,N/A,,Overcast,170,2013-04-18 10:53:00
6:34 AM,75.2,68.0,78,29.78,10.0,South,13.8,27.6,N/A,,Overcast,170,2013-04-18 11:34:00
6:53 AM,75.0,69.1,82,29.81,10.0,South,13.8,25.3,N/A,,Overcast,170,2013-04-18 11:53:00
7:02 AM,75.2,69.8,83,29.78,10.0,South,15.0,23.0,N/A,,Overcast,170,2013-04-18 12:02:00
7:38 AM,75.2,69.8,83,29.80,10.0,South,12.7,20.7,N/A,,Overcast,170,2013-04-18 12:38:00
7:53 AM,75.0,69.1,82,29.83,10.0,South,13.8,24.2,N/A,,Overcast,180,2013-04-18 12:53:00
8:53 AM,75.9,69.1,79,29.82,10.0,South,16.1,25.3,N/A,,Overcast,170,2013-04-18 13:53:00
9:53 AM,79.0,70.0,74,29.81,10.0,South,15.0,31.1,N/A,,Mostly Cloudy,170,2013-04-18 14:53:00
10:21 AM,80.6,69.8,70,29.78,10.0,SSE,21.9,29.9,N/A,,Scattered Clouds,160,2013-04-18 15:21:00
10:53 AM,81.0,71.1,72,29.81,10.0,South,21.9,36.8,N/A,,Partly Cloudy,170,2013-04-18 15:53:00
11:11 AM,80.6,71.6,74,29.78,10.0,South,16.1,33.4,N/A,,Mostly Cloudy,170,2013-04-18 16:11:00
11:22 AM,80.6,71.6,74,29.77,10.0,South,18.4,31.1,N/A,,Mostly Cloudy,170,2013-04-18 16:22:00
11:53 AM,81.0,71.1,72,29.78,10.0,South,19.6,29.9,N/A,,Mostly Cloudy,170,2013-04-18 16:53:00
12:03 PM,82.4,71.6,70,29.76,10.0,South,19.6,31.1,N/A,,Scattered Clouds,180,2013-04-18 17:03:00
12:53 PM,82.0,71.1,69,29.78,10.0,South,16.1,31.1,N/A,,Scattered Clouds,170,2013-04-18 17:53:00
1:53 PM,79.0,71.1,77,29.79,10.0,South,18.4,31.1,N/A,,Mostly Cloudy,190,2013-04-18 18:53:00
2:51 PM,78.8,71.6,78,29.75,9.0,South,15.0,23.0,N/A,,Overcast,180,2013-04-18 19:51:00
2:53 PM,78.1,71.1,79,29.78,9.0,South,15.0,24.2,N/A,,Overcast,180,2013-04-18 19:53:00
3:53 PM,78.1,71.1,79,29.77,9.0,South,11.5,21.9,N/A,,Overcast,180,2013-04-18 20:53:00
4:11 PM,77.0,71.6,83,29.73,9.0,South,13.8,23.0,N/A,,Overcast,190,2013-04-18 21:11:00
4:53 PM,77.0,71.1,82,29.75,8.0,South,13.8,20.7,N/A,,Overcast,190,2013-04-18 21:53:00
5:53 PM,70.0,64.0,81,29.78,8.0,NW,10.4,24.2,N/A,,Overcast,310,2013-04-18 22:53:00
6:00 PM,66.2,64.4,94,29.75,2.5,North,15.0,20.7,0.01,Rain,Heavy Rain,350,2013-04-18 23:00:00
6:11 PM,64.4,60.8,88,29.77,3.0,NNW,23.0,31.1,0.05,Rain,Rain,330,2013-04-18 23:11:00
6:22 PM,62.6,59.0,88,29.78,4.0,NNW,17.3,33.4,0.06,Rain,Light Rain,340,2013-04-18 23:22:00
6:29 PM,62.6,59.0,88,29.79,5.0,NNW,17.3,26.5,0.06,Rain,Light Rain,340,2013-04-18 23:29:00
6:32 PM,62.6,60.8,94,29.79,5.0,NNW,18.4,26.5,0.06,Rain,Light Rain,330,2013-04-18 23:32:00
6:53 PM,62.1,59.0,90,29.83,7.0,NNW,16.1,23.0,0.08,Rain,Light Rain,330,2013-04-18 23:53:00
7:26 PM,60.8,55.4,82,29.82,10.0,North,17.3,29.9,0.01,,Overcast,350,2013-04-19 00:26:00
7:37 PM,60.8,55.4,82,29.84,8.0,NNW,12.7,25.3,0.01,Rain,Light Rain,340,2013-04-19 00:37:00
7:53 PM,59.0,57.0,93,29.87,5.0,NNW,8.1,18.4,0.02,Rain,Light Rain,340,2013-04-19 00:53:00
8:53 PM,57.0,53.1,87,29.92,10.0,NNW,13.8,19.6,0.01,Rain,Light Rain,330,2013-04-19 01:53:00
9:22 PM,55.4,51.8,88,29.92,10.0,NNW,23.0,28.8,0.00,,Overcast,340,2013-04-19 02:22:00
9:53 PM,55.0,50.0,83,29.97,10.0,North,15.0,29.9,0.00,Rain,Light Rain,350,2013-04-19 02:53:00
10:06 PM,55.4,51.8,88,29.96,10.0,NNW,15.0,20.7,0.00,,Overcast,330,2013-04-19 03:06:00
10:53 PM,54.0,48.0,80,30.00,10.0,NNW,13.8,24.2,0.00,,Overcast,340,2013-04-19 03:53:00
11:13 PM,53.6,48.2,82,30.00,10.0,North,17.3,32.2,N/A,,Overcast,350,2013-04-19 04:13:00
11:40 PM,53.6,48.2,82,30.01,10.0,North,13.8,23.0,N/A,,Overcast,350,2013-04-19 04:40:00
11:53 PM,54.0,48.0,80,30.04,10.0,North,16.1,21.9,N/A,,Overcast,350,2013-04-19 04:53:00